Location: Bussy-Saint-Georges
(48.8410°N, 2.7017°E)
Time: 04:35:00
(UTC+00:00)

deb Chang Zheng 4 - Pass Details

Date: 18 October 2021
Orbit: 595 x 616 km, 98.6° (Epoch: 30 November)

Event Time Altitude Azimuth Distance (km) Brightness Sun altitude
Rises 17:54:54 0° 175° (S) 2,824 6.9 -10.8°
Reaches altitude 10° 17:57:05 10° 179° (S) 1,928 6.1 -11.2°
Maximum altitude 18:01:12 56° 258° (WSW) 717 4.3 -11.8°
Drops below altitude 10° 18:05:21 10° 337° (NNW) 1,950 6.4 -12.5°
Sets 18:07:35 0° 342° (NNW) 2,861 7.2 -12.9°
